Regional Weather Roundup
Issued by NWS

Home | Current Version | Previous Version | Text Only | Print | Product List | Glossary On
Versions: 1 2 3 4 5 6 7 8 9 10 11 12 13 14 15 16 17 18 19 20 21 22 23 24 25 26 27 28 29 30 31 32 33 34 35 36 37 38 39 40 41 42 43 44 45 46 47 48 49 50
164
ASUS45 KBOU 300107
RWRCO

WEATHER ROUNDUP FOR COLORADO
NATIONAL WEATHER SERVICE DENVER/BOULDER CO
700 PM MDT MON MAY 29 2017

NOTE: "FAIR" INDICATES FEW OR NO CLOUDS BELOW 12000 FEET WITH NO
SIGNIFICANT WEATHER AND/OR OBSTRUCTIONS TO VISIBILITY.

COZ001>005-013-030-031-300200-
...NORTHWEST COLORADO...

CITY           SKY/WX    TMP DP  RH WIND       PRES   REMARKS
CRAIG          FAIR      69  32  25 N6        30.18F
HAYDEN         FAIR      66  34  30 W5        30.20S
MEEKER         FAIR      69  33  26 N16       30.17S
RABBIT EARS PA FAIR      46  28  49 NW5       30.41F
STEAMBOAT SPGS FAIR      62  37  39 W9        30.21S
WALDEN           N/A     54  36  50 NE10      30.32S
$$

COZ006>008-011-300200-
...WEST CENTRAL VALLEYS...

CITY           SKY/WX    TMP DP  RH WIND       PRES   REMARKS
GRAND JUNCTION FAIR      80  26  13 W7        30.02F
MONTROSE       FAIR      77  19  11 NW12      30.09F
EAGLE          MOSUNNY   70  28  21 SE8       30.18F
RIFLE          FAIR      77  22  13 N12       30.09R
DELTA          FAIR      83  20   9 N9        30.04F
NUCLA          FAIR      77  21  12 CALM      30.12F
$$

COZ017>023-064>068-300200-
...SOUTHWEST COLORADO...

CITY           SKY/WX    TMP DP  RH WIND       PRES   REMARKS
DURANGO        FAIR      73  12   9 W7        30.11S
CORTEZ         FAIR      78  18  10 NW8       30.08S
PAGOSA SPRINGS PTSUNNY   71  15  11 N9        30.18S
TELLURIDE      FAIR      58  25  28 E5        30.32S
WOLF CREEK PAS PTSUNNY   45  18  33 CALM      30.49S
$$

COZ009-010-012-014-032>034-037-058>063-300200-
...CENTRAL COLORADO...

CITY           SKY/WX    TMP DP  RH WIND       PRES   REMARKS
ASPEN          FAIR      65  24  21 N12       30.21S
BUENA VISTA    FAIR      67  14  13 NW15      30.21R
COPPER MTN     FAIR      45  23  42 NW3       30.48S
BERTHOUD PASS  LGT SNOW  30  21  69 W12G17    30.50R WCI  21
COTTONWOOD PAS FAIR      61   5  11 NW5       30.33S
GUNNISON       FAIR      67  21  17 N15G21    30.19F
KREMMLING      PTSUNNY   68  30  24 NW3       30.25S
LEADVILLE      FAIR      54  19  25 NW8       30.34S
MONARCH PASS   PTSUNNY   46  18  31 NW12G20   30.56S
SALIDA         FAIR      64  34  32 SE16G25   30.27R
SUNLIGHT       FAIR      50  21  32 N3        30.44S
WILKERSON PASS PTSUNNY   37  32  81 SE8G17    30.46S
$$

COZ069>075-300200-
...SAN LUIS VALLEY/SANGRE DE CRISTO MOUNTAINS...

CITY           SKY/WX    TMP DP  RH WIND       PRES   REMARKS
ALAMOSA        FAIR      68  20  16 NW8       30.16R
DEL NORTE      PTSUNNY   65  21  18 N15G21    30.19F
LA VETA PASS   FAIR      45  32  61 N16G24    30.47S THUNDER
SAGUACHE       FAIR      63  27  25 SW3       30.19S
$$

COZ035-036-038>040-300200-
...NORTHERN COLORADO FRONT RANGE...

CITY           SKY/WX    TMP DP  RH WIND       PRES   REMARKS
DENVER INTL AP FAIR      62  45  53 S8        30.20F
DMNS CITY PARK   N/A     60  43  52 E10G16    30.20R
AURORA         NOT AVBL
FRONT RANGE AP MOSUNNY   61  46  59 SE9       30.21F
ERIE MUNI ARPT PTSUNNY   65  38  36 CALM      30.18S
BOULDER MUN AP PTSUNNY   63  39  42 CALM      30.19F
CENTENNIAL     FAIR      59  43  55 CALM      30.22S
BROOMFIELD     PTSUNNY   64  39  39 CALM      30.22S
FORT COLLINS   FAIR      64  41  42 SW5       30.18S
LONGMONT       FAIR      67  41  39 CALM      30.20S
$$

COZ041-046-047-076>085-087-088-300200-
...PIKES PEAK/PALMER DIVIDE AND SOUTHERN FOOTHILLS...

CITY           SKY/WX    TMP DP  RH WIND       PRES   REMARKS
COLO. SPRINGS  LGT RAIN  59  44  57 NE16      30.25R
A. F. ACADEMY  CLOUDY    54  43  66 CALM      30.26R
SCHRIEVER AFB  NOT AVBL
CHEYENNE MTN   PTSUNNY   55  40  58 NE8G18    30.22R
ELLICOTT       FAIR     N/A N/A N/A E14       30.22S
FALCON         PTSUNNY   53  40  60 N7        30.28S
FORT CARSON    NOT AVBL
LIMON          FAIR      51  48  89 CALM      30.21R
MONUMENT HILL  LGT RAIN  50  41  71 CALM      30.30R
CANON CITY     NOT AVBL
WALSENBURG     CLOUDY    66  43  42 N17G24    30.17R
TRINIDAD       FAIR      68  34  28 W7        30.13F
$$

COZ042>045-048>051-090-091-300200-
...NORTHEAST COLORADO...

CITY           SKY/WX    TMP DP  RH WIND       PRES   REMARKS
GREELEY ARPT   FAIR      67  43  41 E8        30.17S
AKRON          PTSUNNY   63  44  50 SW6       30.16S
BURLINGTON     TSTM      55  48  77 NW39G52   30.20R
WRAY           FAIR      70  36  28 NW7       30.12R
YUMA           CLOUDY    64  34  32 N3        30.13S
STERLING       NOT AVBL
HOLYOKE        NOT AVBL
FORT MORGAN    FAIR      68  34  28 N5        30.17S
$$

COZ086-089-092>099-300200-
...SOUTHEAST COLORADO...

CITY           SKY/WX    TMP DP  RH WIND       PRES   REMARKS
PUEBLO         FAIR      67  43  41 NE23      30.14R
LA JUNTA       FAIR      73  46  38 NE13      30.11R
LAMAR          CLOUDY    74  45  35 E6        30.08R
SPRINGFIELD      N/A     60  48  64 S18       30.14R
$$




USA.gov is the U.S. government's official web portal to all federal, state and local government web resources and services.